Time,TemperatureF,DewpointF,PressureIn,WindDirection,WindDirectionDegrees,WindSpeedMPH,WindSpeedGustMPH,Humidity,HourlyPrecipIn,Conditions,Clouds,dailyrainin,SoftwareType,DateUTC
2013-03-10 00:00:00,46.0,37.1,30.16,East,90,1.0,3.0,71,0.00,,,0.00,Weather View 32 v70,2013-03-10 05:00:00,
2013-03-10 00:01:00,46.0,37.1,30.16,East,90,1.0,3.0,71,0.00,,,0.00,Weather View 32 v70,2013-03-10 05:01:00,
2013-03-10 00:06:00,46.0,37.1,30.16,East,90,1.0,3.0,71,0.00,,,0.00,Weather View 32 v70,2013-03-10 05:06:00,
2013-03-10 00:11:00,46.0,37.1,30.16,East,90,1.0,3.0,71,0.00,,,0.00,Weather View 32 v70,2013-03-10 05:11:00,
2013-03-10 00:16:00,46.0,37.5,30.16,East,90,2.0,3.0,72,0.00,,,0.00,Weather View 32 v70,2013-03-10 05:16:00,
2013-03-10 00:21:00,46.0,37.5,30.16,East,90,1.0,3.0,72,0.00,,,0.00,Weather View 32 v70,2013-03-10 05:21:00,
2013-03-10 00:26:00,46.0,37.5,30.16,SSE,158,1.0,3.0,72,0.00,,,0.00,Weather View 32 v70,2013-03-10 05:26:00,
2013-03-10 00:31:00,46.0,37.8,30.16,East,90,2.0,3.0,73,0.00,,,0.00,Weather View 32 v70,2013-03-10 05:31:00,
2013-03-10 00:36:00,46.0,37.8,30.16,SSE,158,3.0,4.0,73,0.00,,,0.00,Weather View 32 v70,2013-03-10 05:36:00,
2013-03-10 00:41:00,46.0,37.5,30.16,South,180,2.0,4.0,72,0.00,,,0.00,Weather View 32 v70,2013-03-10 05:41:00,
2013-03-10 00:46:00,46.0,37.5,30.16,SSE,158,2.0,5.0,72,0.00,,,0.00,Weather View 32 v70,2013-03-10 05:46:00,
2013-03-10 00:51:00,47.0,38.4,30.16,East,90,1.0,5.0,72,0.00,,,0.00,Weather View 32 v70,2013-03-10 05:51:00,
2013-03-10 00:56:00,47.0,38.4,30.16,East,90,1.0,5.0,72,0.00,,,0.00,Weather View 32 v70,2013-03-10 05:56:00,
2013-03-10 01:01:00,47.0,38.4,30.15,SSE,158,2.0,5.0,72,0.00,,,0.00,Weather View 32 v70,2013-03-10 06:01:00,
2013-03-10 01:06:00,47.0,38.4,30.15,SSE,158,3.0,5.0,72,0.00,,,0.00,Weather View 32 v70,2013-03-10 06:06:00,
2013-03-10 01:11:00,47.0,38.4,30.15,East,90,3.0,5.0,72,0.00,,,0.00,Weather View 32 v70,2013-03-10 06:11:00,
2013-03-10 01:16:00,47.0,38.4,30.15,East,90,3.0,5.0,72,0.00,,,0.00,Weather View 32 v70,2013-03-10 06:16:00,
2013-03-10 01:21:00,46.0,37.5,30.15,SSE,158,3.0,5.0,72,0.00,,,0.00,Weather View 32 v70,2013-03-10 06:21:00,
2013-03-10 01:26:00,46.0,37.5,30.16,East,90,3.0,5.0,72,0.00,,,0.00,Weather View 32 v70,2013-03-10 06:26:00,
2013-03-10 01:31:00,46.0,37.5,30.16,East,90,1.0,5.0,72,0.00,,,0.00,Weather View 32 v70,2013-03-10 06:31:00,
2013-03-10 01:36:00,46.0,37.5,30.16,East,90,1.0,5.0,72,0.00,,,0.00,Weather View 32 v70,2013-03-10 06:36:00,
2013-03-10 01:41:00,45.0,36.9,30.15,East,90,1.0,5.0,73,0.00,,,0.00,Weather View 32 v70,2013-03-10 06:41:00,
2013-03-10 01:46:00,45.0,36.9,30.15,East,90,1.0,5.0,73,0.00,,,0.00,Weather View 32 v70,2013-03-10 06:46:00,
2013-03-10 01:51:00,45.0,37.2,30.15,East,90,2.0,5.0,74,0.00,,,0.00,Weather View 32 v70,2013-03-10 06:51:00,
2013-03-10 01:56:00,45.0,37.5,30.15,East,90,3.0,5.0,75,0.00,,,0.00,Weather View 32 v70,2013-03-10 06:56:00,
2013-03-10 03:01:00,45.0,37.5,30.15,East,90,2.0,3.0,75,0.00,,,0.00,Weather View 32 v70,2013-03-10 07:01:00,
2013-03-10 03:06:00,44.0,36.6,30.14,East,90,1.0,3.0,75,0.00,,,0.00,Weather View 32 v70,2013-03-10 07:06:00,
2013-03-10 03:11:00,44.0,36.6,30.14,East,90,3.0,3.0,75,0.00,,,0.00,Weather View 32 v70,2013-03-10 07:11:00,
2013-03-10 03:16:00,44.0,36.6,30.15,SSE,158,1.0,3.0,75,0.00,,,0.00,Weather View 32 v70,2013-03-10 07:16:00,
2013-03-10 03:21:00,44.0,36.9,30.15,East,90,0.0,3.0,76,0.00,,,0.00,Weather View 32 v70,2013-03-10 07:21:00,
2013-03-10 03:26:00,44.0,36.9,30.14,East,90,0.0,3.0,76,0.00,,,0.00,Weather View 32 v70,2013-03-10 07:26:00,
2013-03-10 03:31:00,44.0,36.9,30.15,East,90,1.0,3.0,76,0.00,,,0.00,Weather View 32 v70,2013-03-10 07:31:00,
2013-03-10 03:36:00,44.0,37.2,30.15,East,90,0.0,3.0,77,0.00,,,0.00,Weather View 32 v70,2013-03-10 07:36:00,
2013-03-10 03:41:00,43.0,36.3,30.15,East,90,0.0,3.0,77,0.00,,,0.00,Weather View 32 v70,2013-03-10 07:41:00,
2013-03-10 03:46:00,43.0,36.3,30.15,South,180,1.0,3.0,77,0.00,,,0.00,Weather View 32 v70,2013-03-10 07:46:00,
2013-03-10 03:51:00,43.0,36.6,30.15,East,90,1.0,3.0,78,0.00,,,0.00,Weather View 32 v70,2013-03-10 07:51:00,
2013-03-10 03:56:00,43.0,36.6,30.15,SSE,158,3.0,4.0,78,0.00,,,0.00,Weather View 32 v70,2013-03-10 07:56:00,
2013-03-10 04:01:00,43.0,36.6,30.15,East,90,1.0,4.0,78,0.00,,,0.00,Weather View 32 v70,2013-03-10 08:01:00,
2013-03-10 04:06:00,43.0,36.9,30.15,SSE,158,2.0,4.0,79,0.00,,,0.00,Weather View 32 v70,2013-03-10 08:06:00,
2013-03-10 04:12:00,42.0,36.0,30.14,East,90,1.0,4.0,79,0.00,,,0.00,Weather View 32 v70,2013-03-10 08:12:00,
2013-03-10 04:17:00,42.0,36.3,30.14,East,90,3.0,4.0,80,0.00,,,0.00,Weather View 32 v70,2013-03-10 08:17:00,
2013-03-10 04:22:00,42.0,36.3,30.15,East,90,1.0,4.0,80,0.00,,,0.00,Weather View 32 v70,2013-03-10 08:22:00,
2013-03-10 04:27:00,42.0,36.6,30.15,East,90,1.0,4.0,81,0.00,,,0.00,Weather View 32 v70,2013-03-10 08:27:00,
2013-03-10 04:32:00,42.0,36.6,30.15,East,90,2.0,4.0,81,0.00,,,0.00,Weather View 32 v70,2013-03-10 08:32:00,
2013-03-10 04:37:00,42.0,36.6,30.15,East,90,2.0,4.0,81,0.00,,,0.00,Weather View 32 v70,2013-03-10 08:37:00,
2013-03-10 04:42:00,42.0,36.9,30.15,East,90,1.0,4.0,82,0.00,,,0.00,Weather View 32 v70,2013-03-10 08:42:00,
2013-03-10 04:47:00,41.0,35.9,30.15,East,90,0.0,4.0,82,0.00,,,0.00,Weather View 32 v70,2013-03-10 08:47:00,
2013-03-10 04:52:00,42.0,36.9,30.15,East,90,0.0,4.0,82,0.00,,,0.00,Weather View 32 v70,2013-03-10 08:52:00,
2013-03-10 04:57:00,41.0,35.9,30.15,East,90,0.0,4.0,82,0.00,,,0.00,Weather View 32 v70,2013-03-10 08:57:00,
2013-03-10 05:02:00,41.0,36.2,30.15,East,90,0.0,4.0,83,0.00,,,0.00,Weather View 32 v70,2013-03-10 09:02:00,
2013-03-10 05:07:00,41.0,36.2,30.15,East,90,0.0,4.0,83,0.00,,,0.00,Weather View 32 v70,2013-03-10 09:07:00,
2013-03-10 05:12:00,41.0,36.5,30.15,SSE,158,1.0,4.0,84,0.00,,,0.00,Weather View 32 v70,2013-03-10 09:12:00,
2013-03-10 05:17:00,41.0,36.5,30.15,East,90,1.0,4.0,84,0.00,,,0.00,Weather View 32 v70,2013-03-10 09:17:00,
2013-03-10 05:22:00,41.0,36.5,30.15,East,90,0.0,4.0,84,0.00,,,0.00,Weather View 32 v70,2013-03-10 09:22:00,
2013-03-10 05:27:00,41.0,36.5,30.16,East,90,0.0,4.0,84,0.00,,,0.00,Weather View 32 v70,2013-03-10 09:27:00,
2013-03-10 05:32:00,41.0,36.8,30.16,SSE,158,0.0,4.0,85,0.00,,,0.00,Weather View 32 v70,2013-03-10 09:32:00,
2013-03-10 05:37:00,40.0,35.9,30.15,East,90,1.0,4.0,85,0.00,,,0.00,Weather View 32 v70,2013-03-10 09:37:00,
2013-03-10 05:42:00,40.0,35.9,30.16,East,90,0.0,4.0,85,0.00,,,0.00,Weather View 32 v70,2013-03-10 09:42:00,
2013-03-10 05:47:00,40.0,36.1,30.16,East,90,0.0,4.0,86,0.00,,,0.00,Weather View 32 v70,2013-03-10 09:47:00,
2013-03-10 05:52:00,40.0,36.1,30.16,East,90,1.0,4.0,86,0.00,,,0.00,Weather View 32 v70,2013-03-10 09:52:00,
2013-03-10 05:57:00,40.0,36.1,30.16,East,90,2.0,4.0,86,0.00,,,0.00,Weather View 32 v70,2013-03-10 09:57:00,
2013-03-10 06:02:00,40.0,36.1,30.16,SSE,158,5.0,5.0,86,0.00,,,0.00,Weather View 32 v70,2013-03-10 10:02:00,
2013-03-10 06:07:00,40.0,36.1,30.16,East,90,3.0,5.0,86,0.00,,,0.00,Weather View 32 v70,2013-03-10 10:07:00,
2013-03-10 06:12:00,40.0,36.4,30.16,East,90,3.0,5.0,87,0.00,,,0.00,Weather View 32 v70,2013-03-10 10:12:00,
2013-03-10 06:17:00,40.0,36.4,30.16,East,90,3.0,5.0,87,0.00,,,0.00,Weather View 32 v70,2013-03-10 10:17:00,
2013-03-10 06:22:00,40.0,36.7,30.16,East,90,2.0,5.0,88,0.00,,,0.00,Weather View 32 v70,2013-03-10 10:22:00,
2013-03-10 06:27:00,40.0,36.7,30.16,East,90,0.0,5.0,88,0.00,,,0.00,Weather View 32 v70,2013-03-10 10:27:00,
2013-03-10 06:32:00,40.0,36.7,30.16,East,90,0.0,5.0,88,0.00,,,0.00,Weather View 32 v70,2013-03-10 10:32:00,
2013-03-10 06:37:00,40.0,36.7,30.16,East,90,1.0,5.0,88,0.00,,,0.00,Weather View 32 v70,2013-03-10 10:37:00,
2013-03-10 06:42:00,40.0,36.7,30.16,East,90,1.0,5.0,88,0.00,,,0.00,Weather View 32 v70,2013-03-10 10:42:00,
2013-03-10 06:47:00,40.0,36.7,30.16,East,90,3.0,5.0,88,0.00,,,0.00,Weather View 32 v70,2013-03-10 10:47:00,
2013-03-10 06:52:00,40.0,36.7,30.16,East,90,3.0,5.0,88,0.00,,,0.00,Weather View 32 v70,2013-03-10 10:52:00,
2013-03-10 06:57:00,40.0,36.7,30.16,East,90,2.0,5.0,88,0.00,,,0.00,Weather View 32 v70,2013-03-10 10:57:00,
2013-03-10 07:02:00,40.0,36.7,30.16,East,90,3.0,5.0,88,0.00,,,0.00,Weather View 32 v70,2013-03-10 11:02:00,
2013-03-10 07:07:00,40.0,36.7,30.16,East,90,1.0,5.0,88,0.00,,,0.00,Weather View 32 v70,2013-03-10 11:07:00,
2013-03-10 07:12:00,39.0,35.7,30.17,East,90,1.0,5.0,88,0.00,,,0.00,Weather View 32 v70,2013-03-10 11:12:00,
2013-03-10 07:17:00,39.0,35.7,30.17,ENE,68,1.0,5.0,88,0.00,,,0.00,Weather View 32 v70,2013-03-10 11:17:00,
2013-03-10 07:22:00,39.0,35.7,30.17,ENE,68,1.0,5.0,88,0.00,,,0.00,Weather View 32 v70,2013-03-10 11:22:00,
2013-03-10 07:27:00,39.0,36.0,30.17,ENE,68,0.0,5.0,89,0.00,,,0.00,Weather View 32 v70,2013-03-10 11:27:00,
2013-03-10 07:32:00,39.0,36.0,30.17,ENE,68,0.0,5.0,89,0.00,,,0.00,Weather View 32 v70,2013-03-10 11:32:00,
2013-03-10 07:37:00,39.0,36.0,30.17,ENE,68,0.0,5.0,89,0.00,,,0.00,Weather View 32 v70,2013-03-10 11:37:00,
2013-03-10 07:42:00,39.0,36.0,30.18,ENE,68,0.0,5.0,89,0.00,,,0.00,Weather View 32 v70,2013-03-10 11:42:00,
2013-03-10 07:47:00,39.0,36.3,30.18,WSW,248,3.0,5.0,90,0.00,,,0.00,Weather View 32 v70,2013-03-10 11:47:00,
2013-03-10 07:52:00,39.0,36.3,30.18,WSW,248,1.0,5.0,90,0.00,,,0.00,Weather View 32 v70,2013-03-10 11:52:00,
2013-03-10 07:57:00,39.0,36.3,30.18,SSE,158,0.0,4.0,90,0.00,,,0.00,Weather View 32 v70,2013-03-10 11:57:00,
2013-03-10 08:02:00,40.0,37.6,30.18,East,90,0.0,3.0,91,0.00,,,0.00,Weather View 32 v70,2013-03-10 12:02:00,
2013-03-10 08:07:00,40.0,37.6,30.18,East,90,0.0,3.0,91,0.00,,,0.00,Weather View 32 v70,2013-03-10 12:07:00,
2013-03-10 08:12:00,40.0,37.6,30.18,East,90,0.0,3.0,91,0.00,,,0.00,Weather View 32 v70,2013-03-10 12:12:00,
2013-03-10 08:17:00,40.0,37.6,30.18,East,90,0.0,3.0,91,0.00,,,0.00,Weather View 32 v70,2013-03-10 12:17:00,
2013-03-10 08:22:00,41.0,38.6,30.18,East,90,0.0,3.0,91,0.00,,,0.00,Weather View 32 v70,2013-03-10 12:22:00,
2013-03-10 08:27:00,41.0,38.3,30.18,East,90,0.0,3.0,90,0.00,,,0.00,Weather View 32 v70,2013-03-10 12:27:00,
2013-03-10 08:32:00,42.0,39.3,30.18,ENE,68,0.0,3.0,90,0.00,,,0.00,Weather View 32 v70,2013-03-10 12:32:00,
2013-03-10 08:37:00,42.0,39.0,30.18,ENE,68,0.0,3.0,89,0.00,,,0.00,Weather View 32 v70,2013-03-10 12:37:00,
2013-03-10 08:42:00,42.0,38.7,30.18,East,90,0.0,3.0,88,0.00,,,0.00,Weather View 32 v70,2013-03-10 12:42:00,
2013-03-10 08:47:00,43.0,39.7,30.18,East,90,0.0,3.0,88,0.00,,,0.00,Weather View 32 v70,2013-03-10 12:47:00,
2013-03-10 08:52:00,43.0,39.4,30.17,East,90,1.0,3.0,87,0.00,,,0.00,Weather View 32 v70,2013-03-10 12:52:00,
2013-03-10 08:57:00,44.0,40.4,30.18,East,90,2.0,3.0,87,0.00,,,0.00,Weather View 32 v70,2013-03-10 12:57:00,
2013-03-10 09:02:00,44.0,40.1,30.18,East,90,1.0,3.0,86,0.00,,,0.00,Weather View 32 v70,2013-03-10 13:02:00,
2013-03-10 09:07:00,45.0,40.8,30.18,East,90,0.0,3.0,85,0.00,,,0.00,Weather View 32 v70,2013-03-10 13:07:00,
2013-03-10 09:12:00,46.0,41.1,30.18,ENE,68,0.0,3.0,83,0.00,,,0.00,Weather View 32 v70,2013-03-10 13:12:00,
2013-03-10 09:17:00,46.0,40.8,30.19,ENE,68,0.0,3.0,82,0.00,,,0.00,Weather View 32 v70,2013-03-10 13:17:00,
2013-03-10 09:22:00,47.0,41.8,30.19,ENE,68,0.0,3.0,82,0.00,,,0.00,Weather View 32 v70,2013-03-10 13:22:00,
2013-03-10 09:27:00,47.0,41.5,30.19,South,180,0.0,3.0,81,0.00,,,0.00,Weather View 32 v70,2013-03-10 13:27:00,
2013-03-10 09:32:00,48.0,42.1,30.19,West,270,0.0,3.0,80,0.00,,,0.00,Weather View 32 v70,2013-03-10 13:32:00,
2013-03-10 09:37:00,48.0,41.5,30.20,West,270,1.0,3.0,78,0.00,,,0.00,Weather View 32 v70,2013-03-10 13:37:00,
2013-03-10 09:42:00,48.0,41.5,30.20,West,270,1.0,3.0,78,0.00,,,0.00,Weather View 32 v70,2013-03-10 13:42:00,
2013-03-10 09:47:00,48.0,41.5,30.20,ENE,68,1.0,3.0,78,0.00,,,0.00,Weather View 32 v70,2013-03-10 13:47:00,
2013-03-10 09:52:00,49.0,42.1,30.20,ENE,68,0.0,3.0,77,0.00,,,0.00,Weather View 32 v70,2013-03-10 13:52:00,
2013-03-10 09:57:00,49.0,41.8,30.20,ENE,68,0.0,3.0,76,0.00,,,0.00,Weather View 32 v70,2013-03-10 13:57:00,
2013-03-10 10:02:00,49.0,42.1,30.19,East,90,0.0,3.0,77,0.00,,,0.00,Weather View 32 v70,2013-03-10 14:02:00,
2013-03-10 10:07:00,50.0,43.1,30.19,East,90,0.0,3.0,77,0.00,,,0.00,Weather View 32 v70,2013-03-10 14:07:00,
2013-03-10 10:12:00,51.0,43.7,30.19,ENE,68,0.0,3.0,76,0.00,,,0.00,Weather View 32 v70,2013-03-10 14:12:00,
2013-03-10 10:17:00,51.0,43.0,30.19,ENE,68,0.0,3.0,74,0.00,,,0.00,Weather View 32 v70,2013-03-10 14:17:00,
2013-03-10 10:22:00,52.0,43.6,30.19,East,90,0.0,3.0,73,0.00,,,0.00,Weather View 32 v70,2013-03-10 14:22:00,
2013-03-10 10:27:00,53.0,44.2,30.19,ENE,68,1.0,3.0,72,0.00,,,0.00,Weather View 32 v70,2013-03-10 14:27:00,
2013-03-10 10:32:00,54.0,44.0,30.19,North,0,2.0,3.0,69,0.00,,,0.00,Weather View 32 v70,2013-03-10 14:32:00,
2013-03-10 10:37:00,55.0,44.2,30.19,WSW,248,2.0,3.0,67,0.00,,,0.00,Weather View 32 v70,2013-03-10 14:37:00,
2013-03-10 10:42:00,56.0,43.6,30.19,WSW,248,0.0,4.0,63,0.00,,,0.00,Weather View 32 v70,2013-03-10 14:42:00,
2013-03-10 10:47:00,58.0,42.8,30.19,East,90,1.0,5.0,57,0.00,,,0.00,Weather View 32 v70,2013-03-10 14:47:00,
2013-03-10 10:52:00,59.0,42.3,30.19,South,180,3.0,5.0,54,0.00,,,0.00,Weather View 32 v70,2013-03-10 14:52:00,
2013-03-10 10:57:00,60.0,41.8,30.19,WSW,248,3.0,5.0,51,0.00,,,0.00,Weather View 32 v70,2013-03-10 14:57:00,
2013-03-10 11:03:00,61.0,42.2,30.19,SSE,158,1.0,5.0,50,0.00,,,0.00,Weather View 32 v70,2013-03-10 15:03:00,
2013-03-10 11:07:00,61.0,40.6,30.19,SSE,158,3.0,5.0,47,0.00,,,0.00,Weather View 32 v70,2013-03-10 15:07:00,
2013-03-10 11:13:00,62.0,42.0,30.20,SSE,158,4.0,6.0,48,0.00,,,0.00,Weather View 32 v70,2013-03-10 15:13:00,
2013-03-10 11:18:00,63.0,41.3,30.20,South,180,1.0,6.0,45,0.00,,,0.00,Weather View 32 v70,2013-03-10 15:18:00,
2013-03-10 11:23:00,63.0,41.3,30.19,ENE,68,3.0,6.0,45,0.00,,,0.00,Weather View 32 v70,2013-03-10 15:23:00,
2013-03-10 11:28:00,63.0,40.7,30.19,East,90,6.0,8.0,44,0.00,,,0.00,Weather View 32 v70,2013-03-10 15:28:00,
2013-03-10 11:33:00,63.0,41.3,30.20,East,90,3.0,8.0,45,0.00,,,0.00,Weather View 32 v70,2013-03-10 15:33:00,
2013-03-10 11:38:00,64.0,41.0,30.19,East,90,3.0,8.0,43,0.00,,,0.00,Weather View 32 v70,2013-03-10 15:38:00,
2013-03-10 11:43:00,64.0,40.4,30.19,East,90,2.0,8.0,42,0.00,,,0.00,Weather View 32 v70,2013-03-10 15:43:00,
2013-03-10 11:48:00,65.0,41.9,30.19,WSW,248,6.0,8.0,43,0.00,,,0.00,Weather View 32 v70,2013-03-10 15:48:00,
2013-03-10 11:53:00,64.0,39.1,30.19,ENE,68,1.0,8.0,40,0.00,,,0.00,Weather View 32 v70,2013-03-10 15:53:00,
2013-03-10 11:58:00,65.0,40.7,30.19,South,180,3.0,10.0,41,0.00,,,0.00,Weather View 32 v70,2013-03-10 15:58:00,
2013-03-10 12:03:00,65.0,41.3,30.19,WSW,248,7.0,10.0,42,0.00,,,0.00,Weather View 32 v70,2013-03-10 16:03:00,
2013-03-10 12:08:00,64.0,39.8,30.19,South,180,5.0,11.0,41,0.00,,,0.00,Weather View 32 v70,2013-03-10 16:08:00,
2013-03-10 12:13:00,64.0,39.1,30.19,SSE,158,4.0,11.0,40,0.00,,,0.00,Weather View 32 v70,2013-03-10 16:13:00,
2013-03-10 12:18:00,63.0,37.6,30.19,SSE,158,1.0,11.0,39,0.00,,,0.00,Weather View 32 v70,2013-03-10 16:18:00,
2013-03-10 12:23:00,63.0,38.9,30.19,West,270,1.0,11.0,41,0.00,,,0.00,Weather View 32 v70,2013-03-10 16:23:00,
2013-03-10 12:28:00,64.0,40.4,30.18,West,270,3.0,11.0,42,0.00,,,0.00,Weather View 32 v70,2013-03-10 16:28:00,
2013-03-10 12:33:00,64.0,39.8,30.18,ENE,68,1.0,11.0,41,0.00,,,0.00,Weather View 32 v70,2013-03-10 16:33:00,
2013-03-10 12:38:00,65.0,40.0,30.18,East,90,1.0,11.0,40,0.00,,,0.00,Weather View 32 v70,2013-03-10 16:38:00,
2013-03-10 12:43:00,64.0,39.8,30.18,South,180,3.0,11.0,41,0.00,,,0.00,Weather View 32 v70,2013-03-10 16:43:00,
2013-03-10 12:48:00,65.0,40.0,30.18,SSE,158,1.0,11.0,40,0.00,,,0.00,Weather View 32 v70,2013-03-10 16:48:00,
2013-03-10 12:53:00,64.0,38.5,30.17,ENE,68,1.0,11.0,39,0.00,,,0.00,Weather View 32 v70,2013-03-10 16:53:00,
2013-03-10 12:58:00,64.0,38.5,30.17,East,90,4.0,11.0,39,0.00,,,0.00,Weather View 32 v70,2013-03-10 16:58:00,
2013-03-10 13:03:00,65.0,39.4,30.16,East,90,1.0,11.0,39,0.00,,,0.00,Weather View 32 v70,2013-03-10 17:03:00,
2013-03-10 13:08:00,65.0,39.4,30.16,WSW,248,2.0,9.0,39,0.00,,,0.00,Weather View 32 v70,2013-03-10 17:08:00,
2013-03-10 13:13:00,65.0,39.4,30.16,East,90,2.0,9.0,39,0.00,,,0.00,Weather View 32 v70,2013-03-10 17:13:00,
2013-03-10 13:18:00,65.0,39.4,30.16,East,90,1.0,9.0,39,0.00,,,0.00,Weather View 32 v70,2013-03-10 17:18:00,
2013-03-10 13:23:00,65.0,39.4,30.15,East,90,3.0,8.0,39,0.00,,,0.00,Weather View 32 v70,2013-03-10 17:23:00,
2013-03-10 13:28:00,66.0,40.3,30.15,East,90,1.0,8.0,39,0.00,,,0.00,Weather View 32 v70,2013-03-10 17:28:00,
2013-03-10 13:33:00,66.0,40.3,30.15,North,0,2.0,10.0,39,0.00,,,0.00,Weather View 32 v70,2013-03-10 17:33:00,
2013-03-10 13:38:00,66.0,39.6,30.15,East,90,2.0,10.0,38,0.00,,,0.00,Weather View 32 v70,2013-03-10 17:38:00,
2013-03-10 13:43:00,66.0,40.3,30.15,West,270,4.0,10.0,39,0.00,,,0.00,Weather View 32 v70,2013-03-10 17:43:00,
2013-03-10 13:48:00,66.0,39.6,30.14,East,90,2.0,10.0,38,0.00,,,0.00,Weather View 32 v70,2013-03-10 17:48:00,
2013-03-10 13:53:00,66.0,39.6,30.14,East,90,0.0,10.0,38,0.00,,,0.00,Weather View 32 v70,2013-03-10 17:53:00,
2013-03-10 13:58:00,66.0,38.9,30.14,East,90,3.0,10.0,37,0.00,,,0.00,Weather View 32 v70,2013-03-10 17:58:00,
2013-03-10 14:03:00,66.0,38.2,30.14,ENE,68,0.0,10.0,36,0.00,,,0.00,Weather View 32 v70,2013-03-10 18:03:00,
2013-03-10 14:08:00,66.0,38.2,30.13,ENE,68,2.0,10.0,36,0.00,,,0.00,Weather View 32 v70,2013-03-10 18:08:00,
2013-03-10 14:13:00,67.0,39.1,30.13,East,90,4.0,10.0,36,0.00,,,0.00,Weather View 32 v70,2013-03-10 18:13:00,
2013-03-10 14:18:00,67.0,39.8,30.13,NNW,338,3.0,10.0,37,0.00,,,0.00,Weather View 32 v70,2013-03-10 18:18:00,
2013-03-10 14:23:00,66.0,39.6,30.13,ENE,68,1.0,10.0,38,0.00,,,0.00,Weather View 32 v70,2013-03-10 18:23:00,
2013-03-10 14:28:00,66.0,38.9,30.12,East,90,1.0,10.0,37,0.00,,,0.00,Weather View 32 v70,2013-03-10 18:28:00,
2013-03-10 14:33:00,67.0,39.1,30.12,South,180,3.0,10.0,36,0.00,,,0.00,Weather View 32 v70,2013-03-10 18:33:00,
2013-03-10 14:38:00,67.0,41.2,30.12,South,180,5.0,10.0,39,0.00,,,0.00,Weather View 32 v70,2013-03-10 18:38:00,
2013-03-10 14:43:00,67.0,39.1,30.11,SSE,158,1.0,10.0,36,0.00,,,0.00,Weather View 32 v70,2013-03-10 18:43:00,
2013-03-10 14:48:00,67.0,39.8,30.11,East,90,2.0,10.0,37,0.00,,,0.00,Weather View 32 v70,2013-03-10 18:48:00,
2013-03-10 14:53:00,67.0,39.1,30.11,WSW,248,3.0,10.0,36,0.00,,,0.00,Weather View 32 v70,2013-03-10 18:53:00,
2013-03-10 14:58:00,67.0,39.1,30.11,SSE,158,2.0,10.0,36,0.00,,,0.00,Weather View 32 v70,2013-03-10 18:58:00,
2013-03-10 15:03:00,67.0,38.4,30.11,East,90,6.0,10.0,35,0.00,,,0.00,Weather View 32 v70,2013-03-10 19:03:00,
2013-03-10 15:08:00,67.0,38.4,30.11,East,90,5.0,10.0,35,0.00,,,0.00,Weather View 32 v70,2013-03-10 19:08:00,
2013-03-10 15:13:00,67.0,39.1,30.11,SSE,158,5.0,10.0,36,0.00,,,0.00,Weather View 32 v70,2013-03-10 19:13:00,
2013-03-10 15:18:00,67.0,39.1,30.10,SSE,158,3.0,10.0,36,0.00,,,0.00,Weather View 32 v70,2013-03-10 19:18:00,
2013-03-10 15:23:00,67.0,39.1,30.10,ENE,68,1.0,10.0,36,0.00,,,0.00,Weather View 32 v70,2013-03-10 19:23:00,
2013-03-10 15:28:00,67.0,37.6,30.10,ENE,68,6.0,10.0,34,0.00,,,0.00,Weather View 32 v70,2013-03-10 19:28:00,
2013-03-10 15:33:00,67.0,37.6,30.10,East,90,1.0,10.0,34,0.00,,,0.00,Weather View 32 v70,2013-03-10 19:33:00,
2013-03-10 15:38:00,67.0,38.4,30.10,South,180,6.0,10.0,35,0.00,,,0.00,Weather View 32 v70,2013-03-10 19:38:00,
2013-03-10 15:44:00,67.0,38.4,30.10,West,270,3.0,10.0,35,0.00,,,0.00,Weather View 32 v70,2013-03-10 19:44:00,
2013-03-10 15:49:00,68.0,40.0,30.10,SSE,158,3.0,10.0,36,0.00,,,0.00,Weather View 32 v70,2013-03-10 19:49:00,
2013-03-10 15:54:00,67.0,38.4,30.10,WSW,248,5.0,10.0,35,0.00,,,0.00,Weather View 32 v70,2013-03-10 19:54:00,
2013-03-10 15:59:00,68.0,39.3,30.10,East,90,5.0,10.0,35,0.00,,,0.00,Weather View 32 v70,2013-03-10 19:59:00,
2013-03-10 16:04:00,68.0,38.5,30.10,East,90,0.0,10.0,34,0.00,,,0.00,Weather View 32 v70,2013-03-10 20:04:00,
2013-03-10 16:09:00,68.0,38.5,30.10,SSE,158,2.0,10.0,34,0.00,,,0.00,Weather View 32 v70,2013-03-10 20:09:00,
2013-03-10 16:14:00,68.0,37.8,30.09,ENE,68,1.0,11.0,33,0.00,,,0.00,Weather View 32 v70,2013-03-10 20:14:00,
2013-03-10 16:19:00,69.0,38.6,30.09,East,90,2.0,11.0,33,0.00,,,0.00,Weather View 32 v70,2013-03-10 20:19:00,
2013-03-10 16:24:00,69.0,38.6,30.09,SSE,158,6.0,11.0,33,0.00,,,0.00,Weather View 32 v70,2013-03-10 20:24:00,
2013-03-10 16:29:00,69.0,38.6,30.09,East,90,5.0,11.0,33,0.00,,,0.00,Weather View 32 v70,2013-03-10 20:29:00,
2013-03-10 16:34:00,68.0,37.8,30.09,SSE,158,5.0,11.0,33,0.00,,,0.00,Weather View 32 v70,2013-03-10 20:34:00,
2013-03-10 16:39:00,68.0,37.8,30.09,WSW,248,4.0,11.0,33,0.00,,,0.00,Weather View 32 v70,2013-03-10 20:39:00,
2013-03-10 16:44:00,68.0,37.8,30.09,North,0,4.0,11.0,33,0.00,,,0.00,Weather View 32 v70,2013-03-10 20:44:00,
2013-03-10 16:49:00,68.0,37.0,30.08,SSE,158,4.0,11.0,32,0.00,,,0.00,Weather View 32 v70,2013-03-10 20:49:00,
2013-03-10 16:54:00,68.0,37.8,30.09,ENE,68,4.0,11.0,33,0.00,,,0.00,Weather View 32 v70,2013-03-10 20:54:00,
2013-03-10 16:59:00,68.0,38.5,30.08,SSE,158,3.0,11.0,34,0.00,,,0.00,Weather View 32 v70,2013-03-10 20:59:00,
2013-03-10 17:04:00,68.0,37.8,30.09,NNW,338,5.0,11.0,33,0.00,,,0.00,Weather View 32 v70,2013-03-10 21:04:00,
2013-03-10 17:09:00,67.0,36.9,30.08,SSE,158,5.0,11.0,33,0.00,,,0.00,Weather View 32 v70,2013-03-10 21:09:00,
2013-03-10 17:14:00,68.0,37.0,30.08,SSE,158,2.0,11.0,32,0.00,,,0.00,Weather View 32 v70,2013-03-10 21:14:00,
2013-03-10 17:19:00,68.0,37.8,30.08,South,180,3.0,11.0,33,0.00,,,0.00,Weather View 32 v70,2013-03-10 21:19:00,
2013-03-10 17:24:00,68.0,37.0,30.08,South,180,1.0,11.0,32,0.00,,,0.00,Weather View 32 v70,2013-03-10 21:24:00,
2013-03-10 17:29:00,68.0,37.0,30.07,SSE,158,5.0,11.0,32,0.00,,,0.00,Weather View 32 v70,2013-03-10 21:29:00,
2013-03-10 17:34:00,68.0,37.0,30.07,SSE,158,1.0,11.0,32,0.00,,,0.00,Weather View 32 v70,2013-03-10 21:34:00,
2013-03-10 17:39:00,68.0,37.8,30.07,WSW,248,3.0,11.0,33,0.00,,,0.00,Weather View 32 v70,2013-03-10 21:39:00,
2013-03-10 17:44:00,68.0,37.8,30.07,East,90,2.0,11.0,33,0.00,,,0.00,Weather View 32 v70,2013-03-10 21:44:00,
2013-03-10 17:49:00,67.0,36.9,30.07,ENE,68,4.0,11.0,33,0.00,,,0.00,Weather View 32 v70,2013-03-10 21:49:00,
2013-03-10 17:54:00,67.0,36.9,30.07,SSE,158,5.0,12.0,33,0.00,,,0.00,Weather View 32 v70,2013-03-10 21:54:00,
2013-03-10 17:59:00,67.0,36.1,30.06,East,90,1.0,12.0,32,0.00,,,0.00,Weather View 32 v70,2013-03-10 21:59:00,
2013-03-10 18:04:00,67.0,36.9,30.07,East,90,3.0,12.0,33,0.00,,,0.00,Weather View 32 v70,2013-03-10 22:04:00,
2013-03-10 18:09:00,67.0,36.9,30.07,SSE,158,5.0,12.0,33,0.00,,,0.00,Weather View 32 v70,2013-03-10 22:09:00,
2013-03-10 18:14:00,66.0,36.0,30.06,WSW,248,4.0,12.0,33,0.00,,,0.00,Weather View 32 v70,2013-03-10 22:14:00,
2013-03-10 18:19:00,66.0,36.0,30.06,North,0,0.0,12.0,33,0.00,,,0.00,Weather View 32 v70,2013-03-10 22:19:00,
2013-03-10 18:24:00,66.0,36.8,30.06,SSE,158,6.0,12.0,34,0.00,,,0.00,Weather View 32 v70,2013-03-10 22:24:00,
2013-03-10 18:29:00,66.0,36.8,30.06,East,90,4.0,12.0,34,0.00,,,0.00,Weather View 32 v70,2013-03-10 22:29:00,
2013-03-10 18:34:00,66.0,36.8,30.06,SSE,158,3.0,12.0,34,0.00,,,0.00,Weather View 32 v70,2013-03-10 22:34:00,
2013-03-10 18:39:00,66.0,36.8,30.06,SSE,158,5.0,12.0,34,0.00,,,0.00,Weather View 32 v70,2013-03-10 22:39:00,
2013-03-10 18:44:00,65.0,35.9,30.05,NNW,338,3.0,12.0,34,0.00,,,0.00,Weather View 32 v70,2013-03-10 22:44:00,
2013-03-10 18:49:00,65.0,35.9,30.05,East,90,3.0,12.0,34,0.00,,,0.00,Weather View 32 v70,2013-03-10 22:49:00,
2013-03-10 18:54:00,65.0,35.9,30.06,SSE,158,3.0,10.0,34,0.00,,,0.00,Weather View 32 v70,2013-03-10 22:54:00,
2013-03-10 19:00:00,65.0,36.6,30.06,East,90,1.0,10.0,35,0.00,,,0.00,Weather View 32 v70,2013-03-10 23:00:00,
2013-03-10 19:05:00,65.0,35.9,30.06,East,90,2.0,10.0,34,0.00,,,0.00,Weather View 32 v70,2013-03-10 23:05:00,
2013-03-10 19:10:00,65.0,36.6,30.06,ENE,68,1.0,10.0,35,0.00,,,0.00,Weather View 32 v70,2013-03-10 23:10:00,
2013-03-10 19:15:00,64.0,36.4,30.06,East,90,2.0,10.0,36,0.00,,,0.00,Weather View 32 v70,2013-03-10 23:15:00,
2013-03-10 19:20:00,64.0,36.4,30.06,SSE,158,4.0,10.0,36,0.00,,,0.00,Weather View 32 v70,2013-03-10 23:20:00,
2013-03-10 19:25:00,64.0,36.4,30.07,ENE,68,2.0,10.0,36,0.00,,,0.00,Weather View 32 v70,2013-03-10 23:25:00,
2013-03-10 19:30:00,63.0,35.6,30.07,ENE,68,1.0,10.0,36,0.00,,,0.00,Weather View 32 v70,2013-03-10 23:30:00,
2013-03-10 19:35:00,63.0,36.3,30.07,ENE,68,1.0,10.0,37,0.00,,,0.00,Weather View 32 v70,2013-03-10 23:35:00,
2013-03-10 19:40:00,63.0,36.9,30.07,SSE,158,2.0,10.0,38,0.00,,,0.00,Weather View 32 v70,2013-03-10 23:40:00,
2013-03-10 19:45:00,62.0,36.0,30.07,East,90,1.0,8.0,38,0.00,,,0.00,Weather View 32 v70,2013-03-10 23:45:00,
2013-03-10 19:50:00,62.0,36.7,30.07,SSE,158,1.0,7.0,39,0.00,,,0.00,Weather View 32 v70,2013-03-10 23:50:00,
2013-03-10 19:55:00,61.0,36.5,30.07,SSE,158,1.0,7.0,40,0.00,,,0.00,Weather View 32 v70,2013-03-10 23:55:00,
2013-03-10 20:00:00,61.0,37.1,30.07,East,90,2.0,7.0,41,0.00,,,0.00,Weather View 32 v70,2013-03-11 00:00:00,
2013-03-10 20:05:00,60.0,36.8,30.07,East,90,2.0,7.0,42,0.00,,,0.00,Weather View 32 v70,2013-03-11 00:05:00,
2013-03-10 20:10:00,60.0,37.4,30.08,East,90,3.0,7.0,43,0.00,,,0.00,Weather View 32 v70,2013-03-11 00:10:00,
2013-03-10 20:15:00,59.0,37.1,30.08,East,90,3.0,7.0,44,0.00,,,0.00,Weather View 32 v70,2013-03-11 00:15:00,
2013-03-10 20:20:00,59.0,37.6,30.08,SSE,158,2.0,7.0,45,0.00,,,0.00,Weather View 32 v70,2013-03-11 00:20:00,
2013-03-10 20:25:00,58.0,36.7,30.08,East,90,2.0,6.0,45,0.00,,,0.00,Weather View 32 v70,2013-03-11 00:25:00,
2013-03-10 20:30:00,58.0,37.3,30.08,East,90,2.0,5.0,46,0.00,,,0.00,Weather View 32 v70,2013-03-11 00:30:00,
2013-03-10 20:35:00,58.0,37.8,30.08,East,90,3.0,5.0,47,0.00,,,0.00,Weather View 32 v70,2013-03-11 00:35:00,
2013-03-10 20:40:00,57.0,36.9,30.08,East,90,2.0,5.0,47,0.00,,,0.00,Weather View 32 v70,2013-03-11 00:40:00,
2013-03-10 20:45:00,57.0,37.5,30.08,SSE,158,2.0,5.0,48,0.00,,,0.00,Weather View 32 v70,2013-03-11 00:45:00,
2013-03-10 20:50:00,57.0,38.0,30.08,SSE,158,2.0,5.0,49,0.00,,,0.00,Weather View 32 v70,2013-03-11 00:50:00,
2013-03-10 20:55:00,57.0,38.0,30.08,East,90,3.0,5.0,49,0.00,,,0.00,Weather View 32 v70,2013-03-11 00:55:00,
2013-03-10 21:00:00,57.0,38.0,30.08,East,90,3.0,6.0,49,0.00,,,0.00,Weather View 32 v70,2013-03-11 01:00:00,
2013-03-10 21:05:00,57.0,38.0,30.07,East,90,3.0,6.0,49,0.00,,,0.00,Weather View 32 v70,2013-03-11 01:05:00,
2013-03-10 21:10:00,57.0,37.5,30.08,East,90,3.0,6.0,48,0.00,,,0.00,Weather View 32 v70,2013-03-11 01:10:00,
2013-03-10 21:15:00,57.0,38.0,30.08,East,90,2.0,6.0,49,0.00,,,0.00,Weather View 32 v70,2013-03-11 01:15:00,
2013-03-10 21:20:00,57.0,38.0,30.08,East,90,3.0,6.0,49,0.00,,,0.00,Weather View 32 v70,2013-03-11 01:20:00,
2013-03-10 21:25:00,57.0,38.0,30.09,East,90,3.0,6.0,49,0.00,,,0.00,Weather View 32 v70,2013-03-11 01:25:00,
2013-03-10 21:30:00,57.0,38.0,30.09,SSE,158,2.0,6.0,49,0.00,,,0.00,Weather View 32 v70,2013-03-11 01:30:00,
2013-03-10 21:35:00,56.0,37.6,30.09,SSE,158,4.0,6.0,50,0.00,,,0.00,Weather View 32 v70,2013-03-11 01:35:00,
2013-03-10 21:40:00,56.0,38.1,30.09,East,90,3.0,6.0,51,0.00,,,0.00,Weather View 32 v70,2013-03-11 01:40:00,
2013-03-10 21:45:00,56.0,38.1,30.09,SSE,158,2.0,6.0,51,0.00,,,0.00,Weather View 32 v70,2013-03-11 01:45:00,
2013-03-10 21:50:00,56.0,38.6,30.09,East,90,5.0,6.0,52,0.00,,,0.00,Weather View 32 v70,2013-03-11 01:50:00,
2013-03-10 21:55:00,56.0,38.6,30.09,East,90,3.0,6.0,52,0.00,,,0.00,Weather View 32 v70,2013-03-11 01:55:00,
2013-03-10 22:00:00,55.0,38.1,30.09,SSE,158,2.0,6.0,53,0.00,,,0.00,Weather View 32 v70,2013-03-11 02:00:00,
2013-03-10 22:05:00,55.0,38.1,30.09,East,90,1.0,6.0,53,0.00,,,0.00,Weather View 32 v70,2013-03-11 02:05:00,
2013-03-10 22:10:00,55.0,38.6,30.09,SSE,158,2.0,6.0,54,0.00,,,0.00,Weather View 32 v70,2013-03-11 02:10:00,
2013-03-10 22:15:00,55.0,38.6,30.09,East,90,4.0,6.0,54,0.00,,,0.00,Weather View 32 v70,2013-03-11 02:15:00,
2013-03-10 22:20:00,55.0,38.6,30.09,SSE,158,3.0,6.0,54,0.00,,,0.00,Weather View 32 v70,2013-03-11 02:20:00,
2013-03-10 22:25:00,55.0,38.6,30.09,East,90,3.0,6.0,54,0.00,,,0.00,Weather View 32 v70,2013-03-11 02:25:00,
2013-03-10 22:30:00,55.0,38.6,30.09,SSE,158,5.0,6.0,54,0.00,,,0.00,Weather View 32 v70,2013-03-11 02:30:00,
2013-03-10 22:35:00,56.0,39.6,30.09,East,90,3.0,9.0,54,0.00,,,0.00,Weather View 32 v70,2013-03-11 02:35:00,
2013-03-10 22:40:00,56.0,39.1,30.09,East,90,5.0,10.0,53,0.00,,,0.00,Weather View 32 v70,2013-03-11 02:40:00,
2013-03-10 22:45:00,56.0,39.1,30.08,East,90,4.0,10.0,53,0.00,,,0.00,Weather View 32 v70,2013-03-11 02:45:00,
2013-03-10 22:50:00,56.0,39.1,30.09,SSE,158,4.0,10.0,53,0.00,,,0.00,Weather View 32 v70,2013-03-11 02:50:00,
2013-03-10 22:55:00,56.0,38.6,30.09,South,180,8.0,10.0,52,0.00,,,0.00,Weather View 32 v70,2013-03-11 02:55:00,
2013-03-10 23:00:00,56.0,38.6,30.09,SSE,158,3.0,10.0,52,0.00,,,0.00,Weather View 32 v70,2013-03-11 03:00:00,
2013-03-10 23:05:00,56.0,38.6,30.09,South,180,1.0,10.0,52,0.00,,,0.00,Weather View 32 v70,2013-03-11 03:05:00,
2013-03-10 23:10:00,56.0,38.6,30.10,South,180,5.0,10.0,52,0.00,,,0.00,Weather View 32 v70,2013-03-11 03:10:00,
2013-03-10 23:15:00,56.0,38.6,30.10,East,90,2.0,10.0,52,0.00,,,0.00,Weather View 32 v70,2013-03-11 03:15:00,
2013-03-10 23:20:00,56.0,38.6,30.10,SSE,158,2.0,10.0,52,0.00,,,0.00,Weather View 32 v70,2013-03-11 03:20:00,
2013-03-10 23:25:00,55.0,37.7,30.09,East,90,5.0,10.0,52,0.00,,,0.00,Weather View 32 v70,2013-03-11 03:25:00,
2013-03-10 23:30:00,55.0,37.7,30.09,WSW,248,2.0,10.0,52,0.00,,,0.00,Weather View 32 v70,2013-03-11 03:30:00,
2013-03-10 23:35:00,55.0,37.2,30.10,East,90,6.0,10.0,51,0.00,,,0.00,Weather View 32 v70,2013-03-11 03:35:00,
2013-03-10 23:40:00,55.0,37.2,30.09,SSE,158,5.0,10.0,51,0.00,,,0.00,Weather View 32 v70,2013-03-11 03:40:00,
2013-03-10 23:45:00,55.0,37.2,30.09,East,90,1.0,10.0,51,0.00,,,0.00,Weather View 32 v70,2013-03-11 03:45:00,
2013-03-10 23:50:00,55.0,36.7,30.09,SSE,158,5.0,10.0,50,0.00,,,0.00,Weather View 32 v70,2013-03-11 03:50:00,
2013-03-10 23:55:00,55.0,37.2,30.09,South,180,3.0,10.0,51,0.00,,,0.00,Weather View 32 v70,2013-03-11 03:55:00,